Theta_e
320 319 318 318 318 316 313 315 315 314 315 315 315 315 315 317 318 319 319 319 319 319 319 320 320 321 321 321 322 323 324 325 326 326 326 326 326 327 326 325 326 326 326 326 326 325 326 325 325 326 325 323 323 323 325 327 327 325 326 327 328 329 330
320 318 318 318 316 314 313 315 319 318 316 314 313 314 315 315 315 316 316 317 318 317 318 318 316 316 316 316 317 318 318 318 320 322 324 324 323 325 325 324 324 325 325 325 325 324 325 326 325 326 325 324 324 323 323 326 326 327 327 327 328 329 329
320 317 318 319 317 315 314 314 318 318 316 313 310 310 312 311 309 310 310 310 312 312 312 312 310 308 307 307 308 308 307 307 308 312 316 318 318 318 321 322 322 323 323 323 323 323 323 324 324 324 324 324 324 324 323 323 322 323 325 325 326 326 327
319 318 319 319 318 318 317 316 318 319 319 314 310 308 309 308 307 307 307 306 306 307 308 310 309 307 305 305 305 305 305 305 304 305 307 308 308 309 313 318 319 319 320 321 321 322 321 322 321 321 322 320 320 321 322 322 322 323 324 323 322 323 325
317 317 320 319 319 320 318 318 319 319 319 316 311 309 307 307 307 306 306 306 305 305 306 307 307 307 306 306 306 306 306 306 306 306 305 305 308 309 307 309 312 314 316 316 315 314 315 318 319 319 318 317 317 319 319 321 321 321 320 319 319 320 323
315 314 319 319 319 320 319 319 319 319 320 318 314 311 308 307 307 307 306 306 305 305 305 305 306 306 306 307 306 306 306 306 306 306 306 305 308 309 308 309 312 313 313 310 306 307 309 313 316 317 317 316 317 317 316 317 317 316 316 317 318 320 321
315 313 318 319 318 319 320 319 318 319 319 319 317 313 309 308 308 308 307 307 306 306 305 305 306 305 307 309 307 306 306 306 306 306 306 305 305 305 307 309 311 310 310 307 305 308 311 312 315 317 316 315 315 315 315 315 316 316 317 318 319 320 321
318 315 316 319 318 318 320 320 318 318 319 319 318 315 310 309 309 308 307 307 307 306 306 305 306 305 306 308 307 306 306 305 306 305 305 305 305 304 305 306 310 310 308 307 308 309 311 311 311 312 313 315 315 315 315 315 314 315 316 316 317 318 319
321 319 317 318 319 317 319 320 318 318 319 319 320 316 311 309 309 309 308 308 307 307 307 306 306 306 305 306 306 306 306 305 305 306 305 305 304 304 304 304 310 311 305 304 308 307 306 306 305 305 309 313 315 315 314 314 314 315 315 316 317 318 319
323 322 319 319 320 318 318 319 319 318 318 319 320 316 312 311 310 309 309 309 308 308 308 307 306 306 306 306 306 305 306 305 306 305 305 305 304 304 304 303 307 309 304 302 305 304 302 303 302 303 304 307 311 314 315 315 315 315 315 315 315 316 316
322 323 321 321 321 320 319 318 318 318 318 319 320 316 312 312 312 310 310 309 308 308 308 308 307 306 306 307 306 305 305 305 305 305 305 305 305 304 304 303 305 307 304 302 303 303 303 303 302 304 304 304 306 309 312 314 314 314 314 314 315 315 316
319 321 322 322 323 322 320 319 318 319 318 319 320 317 312 312 312 312 311 310 310 309 308 308 308 307 308 308 307 306 306 305 305 305 305 305 305 305 305 304 304 305 303 303 304 304 303 303 303 305 307 309 309 308 308 311 312 312 313 314 314 313 313
318 320 321 322 323 323 321 320 318 319 318 318 319 317 313 313 313 312 312 312 311 310 309 309 308 307 308 308 308 309 308 305 306 306 305 304 305 305 305 304 304 304 303 304 305 305 304 304 304 303 305 309 311 310 310 311 312 311 311 312 312 311 311
321 321 321 322 323 323 322 321 319 319 319 319 319 317 314 313 313 313 313 313 313 312 311 310 309 308 309 309 309 310 308 305 308 309 306 304 305 304 304 305 305 305 304 303 304 305 307 308 307 306 307 309 310 311 311 311 312 312 311 311 312 312 312
323 321 321 322 323 323 323 321 320 320 320 319 319 319 317 316 315 315 315 315 314 314 313 312 311 310 310 310 309 309 307 306 309 310 306 305 306 305 304 304 306 305 304 303 302 303 306 308 307 307 308 309 309 309 309 310 310 310 311 310 310 310 310
322 321 321 322 322 323 323 322 320 320 321 320 320 320 319 318 318 317 316 316 316 315 314 314 313 311 311 310 309 308 307 306 307 307 305 305 308 308 305 304 305 304 303 303 302 302 304 305 305 307 308 308 308 308 309 309 309 309 309 309 308 309 309
320 320 320 321 320 321 322 322 322 320 321 321 320 320 320 319 319 319 318 318 317 316 316 315 314 313 312 311 310 309 308 307 307 306 305 306 307 306 305 304 305 305 304 303 302 303 305 306 306 307 307 306 307 307 308 309 309 309 310 310 309 309 309
320 319 319 319 319 319 319 321 321 319 319 321 320 319 320 320 319 320 320 319 318 318 317 316 315 314 313 313 311 310 309 308 307 307 306 306 305 305 304 304 304 304 303 302 301 302 304 304 302 302 303 304 306 306 306 306 306 307 308 308 309 308 308
321 319 318 317 318 317 316 318 321 319 317 320 319 317 319 320 320 320 320 320 320 319 318 317 316 315 314 313 312 311 310 309 308 307 307 306 305 305 304 304 303 303 303 302 301 301 301 300 299 299 300 301 301 302 303 303 304 305 306 306 307 307 307
319 318 317 317 317 317 318 320 321 320 317 318 318 316 317 319 320 320 320 320 320 319 319 318 317 315 314 314 313 312 311 310 309 308 307 306 305 305 305 303 303 303 303 302 301 300 299 298 297 297 297 297 298 299 301 302 304 306 306 306 307 307 307
314 315 316 317 318 319 321 322 322 321 320 319 319 319 319 319 320 320 320 320 320 319 319 318 317 316 315 314 313 312 312 311 309 308 307 306 305 305 305 304 303 303 303 302 301 299 298 298 297 296 295 295 296 297 297 299 301 304 306 306 307 306 307
308 309 311 314 317 318 319 321 321 322 322 322 321 321 320 320 321 321 321 321 320 319 319 318 317 316 315 314 314 313 313 311 310 308 307 306 305 305 304 304 303 303 303 302 300 299 298 297 296 295 295 294 294 295 296 297 299 302 304 305 306 306 306
308 309 310 312 314 315 316 318 319 320 321 321 321 321 321 321 321 321 321 321 320 320 319 318 317 315 315 314 314 313 313 311 310 308 307 306 305 304 304 303 303 302 302 302 300 300 299 297 295 295 294 294 294 294 295 296 297 299 301 302 304 304 305
309 309 310 311 311 312 314 315 317 318 319 319 320 320 320 321 321 321 321 320 320 319 318 317 317 315 315 314 314 313 312 311 310 308 306 305 304 304 303 303 302 302 301 300 300 299 299 297 296 295 295 295 295 295 295 295 295 296 297 298 300 301 303
308 308 309 310 311 312 313 313 315 316 318 318 318 318 317 318 319 320 320 320 319 319 318 317 316 315 314 314 313 312 311 310 309 307 306 305 304 303 303 302 301 301 299 298 298 296 296 296 296 296 296 295 295 294 295 295 295 295 295 296 297 298 300
307 308 308 309 310 311 312 313 313 315 316 317 317 317 317 316 316 318 319 319 319 318 317 316 315 315 314 314 313 312 310 308 307 306 305 304 304 303 303 302 301 299 298 297 296 295 295 296 296 296 295 295 295 295 295 296 296 296 296 296 296 297 297
307 307 308 308 308 309 310 311 312 313 315 316 316 315 315 314 315 316 317 318 319 318 317 316 315 314 314 313 312 312 309 307 306 305 304 304 304 303 303 301 299 298 297 296 295 296 296 296 295 295 294 295 296 296 297 297 297 297 297 297 297 297 297
307 307 307 308 308 309 309 310 311 312 312 314 315 316 315 315 315 315 315 316 317 317 316 316 315 314 313 313 312 311 308 306 305 305 304 303 303 302 301 300 299 297 296 296 296 296 295 294 294 294 294 295 296 296 297 297 298 298 298 298 298 299 299
308 307 307 308 308 309 309 310 311 312 312 312 314 315 315 315 315 315 315 316 316 316 316 316 315 314 313 312 311 309 307 306 305 304 303 303 302 301 300 299 298 298 297 297 297 296 294 294 294 294 295 295 296 296 296 297 297 297 298 298 298 298 298
308 307 307 307 308 308 309 310 311 312 312 312 313 314 314 315 315 315 316 316 316 316 315 315 315 314 312 310 309 307 306 305 305 303 302 302 301 300 300 299 298 298 297 297 297 295 294 294 295 295 295 296 295 295 296 296 297 297 297 297 297 297 297
307 307 307 307 307 308 309 309 310 311 312 313 313 313 314 314 314 314 315 316 315 314 314 314 313 312 310 308 307 306 304 304 303 302 301 301 301 300 300 299 298 297 297 297 296 295 295 295 295 295 295 295 295 295 295 295 296 296 297 297 297 297 297
307 307 307 307 307 307 308 309 309 311 312 313 312 313 313 313 313 313 314 314 314 313 314 314 311 308 307 306 305 304 303 301 301 300 300 300 300 300 300 299 298 297 296 296 296 296 296 296 296 295 295 294 294 294 294 295 295 295 296 296 297 297 297
307 307 307 307 307 307 308 309 310 311 312 312 311 312 312 312 313 313 312 313 313 313 313 311 309 306 306 305 304 303 302 300 299 299 299 299 299 299 298 298 297 297 297 297 296 296 296 296 295 294 294 294 294 294 293 294 294 295 295 295 295 295 296
307 307 306 306 307 307 308 309 310 311 311 311 311 311 311 312 312 311 311 312 312 312 311 309 308 306 304 303 302 302 301 299 297 296 296 297 296 296 296 297 297 297 297 297 296 296 296 295 294 294 294 294 294 293 293 293 293 293 292 292 293 293 293
307 307 306 304 304 306 308 310 311 311 311 310 310 311 311 311 311 311 311 311 310 309 307 306 306 304 302 301 302 301 298 295 294 294 293 293 293 294 295 296 297 297 297 296 296 295 294 293 293 293 293 293 293 293 293 292 292 291 291 291 291 291 292
307 307 307 306 306 307 309 310 310 310 310 310 310 309 309 310 310 310 309 308 307 306 305 303 302 301 300 300 299 296 294 294 293 293 292 292 293 294 295 296 297 297 296 295 295 294 293 293 293 293 293 293 293 293 292 292 291 291 290 290 290 290 291
306 307 308 308 308 308 309 309 309 309 309 309 308 308 308 309 309 309 307 306 305 304 303 301 300 299 298 296 295 294 293 293 292 292 292 293 293 294 294 295 295 295 295 295 294 294 294 294 294 293 293 293 292 292 291 291 290 290 290 290 290 291 291
Wind_Speed
9 9 9 8 7 6 5 5 4 5 5 5 5 5 5 5 4 4 4 4 4 3 3 2 1 2 2 1 3 3 2 2 1 2 3 4 4 4 6 7 7 7 9 8 7 6 8 11 12 10 10 11 10 11 14 14 14 13 12 13 15 12 11
10 10 9 8 7 6 5 6 5 4 4 4 4 5 5 5 5 5 5 5 5 4 3 2 1 2 1 1 2 2 2 2 2 3 2 1 1 1 3 4 3 5 7 7 7 8 8 11 12 8 6 8 9 12 14 15 16 15 15 16 17 15 13
11 10 9 9 7 6 5 5 5 4 3 3 3 4 4 4 5 6 6 6 6 6 4 4 3 3 3 3 3 3 3 2 1 3 3 2 1 2 2 1 0 2 4 5 6 6 6 8 9 6 5 6 8 10 12 14 16 15 17 18 18 17 16
12 12 11 10 9 7 6 5 5 5 3 2 2 2 3 3 4 5 6 6 6 6 5 6 6 6 6 7 7 7 7 6 5 4 3 1 1 2 3 2 1 2 3 2 3 5 4 5 7 7 7 7 8 9 9 11 12 12 13 14 15 16 14
14 14 12 11 10 9 8 7 6 6 5 3 2 1 1 3 4 4 5 5 5 5 6 5 5 6 6 7 7 7 7 7 7 7 6 5 5 4 2 2 2 1 2 2 4 7 6 5 6 7 7 8 9 9 8 9 11 11 12 12 12 12 12
16 15 13 12 12 10 9 9 7 6 6 5 3 2 0 1 2 3 4 4 4 4 4 4 4 4 5 6 5 6 7 6 6 6 6 6 5 4 5 4 2 1 1 2 3 4 4 4 5 6 7 8 9 9 9 10 11 11 11 10 9 9 9
16 16 14 13 13 11 10 10 9 7 7 7 6 4 2 1 1 1 2 2 2 3 3 3 2 3 4 4 4 4 5 5 5 6 5 6 5 4 5 4 3 2 3 4 4 3 3 3 3 5 7 8 9 9 9 8 8 8 7 6 6 6 7
16 16 15 13 13 13 12 11 10 9 8 8 8 6 3 2 3 2 1 1 1 1 2 2 1 1 2 2 2 3 4 4 5 5 6 5 5 5 4 4 4 3 3 4 5 3 3 4 4 5 6 8 9 8 8 7 7 7 6 5 5 5 5
15 15 15 14 14 14 13 13 11 11 10 9 10 8 5 4 4 4 4 3 2 2 2 1 2 2 1 1 1 2 2 3 4 5 5 6 5 5 5 4 4 3 4 3 3 4 4 4 5 5 5 6 9 9 9 8 7 6 5 5 5 4 3
16 15 14 14 14 15 14 14 12 12 11 11 12 10 7 5 6 6 5 6 5 4 4 3 3 3 3 3 3 3 3 3 4 5 5 6 6 6 6 5 3 2 5 5 4 5 6 6 6 6 5 5 6 8 10 10 9 8 8 7 6 6 6
18 16 15 13 14 15 15 14 13 13 13 13 14 12 9 7 8 7 7 8 7 6 6 5 5 5 4 4 4 4 4 5 5 5 5 6 7 7 7 7 6 5 7 7 6 6 7 7 6 6 7 7 6 7 8 10 11 10 9 9 8 8 8
20 18 16 14 14 15 15 14 14 15 14 14 15 14 12 10 10 9 8 10 9 9 8 7 8 7 5 6 6 5 5 5 4 5 5 5 6 7 7 8 7 7 9 10 9 10 10 9 7 6 6 7 8 8 8 9 12 11 9 9 10 11 12
21 20 18 16 16 16 15 14 14 15 15 15 16 16 14 13 13 12 11 11 11 11 10 10 10 9 8 8 6 6 6 6 5 6 6 6 6 6 7 8 7 7 9 10 8 10 12 11 11 10 8 6 7 9 9 9 12 13 12 12 14 16 15
19 20 18 17 17 17 17 16 15 15 16 16 17 17 16 15 15 14 13 13 13 13 13 12 12 11 10 10 8 8 9 7 4 5 7 8 8 7 7 7 8 9 10 10 8 7 8 9 11 12 10 7 6 7 8 9 12 15 15 14 14 15 14
18 19 19 18 18 18 18 19 18 16 17 17 17 18 17 16 17 16 15 15 15 14 15 14 14 13 12 12 12 12 11 8 5 7 9 9 8 9 9 7 8 10 12 12 11 8 6 7 8 8 8 8 8 9 9 10 12 15 16 16 15 16 15
15 16 17 17 18 19 18 19 20 17 17 17 18 18 18 18 18 18 18 17 17 17 16 16 16 16 14 15 16 15 14 11 10 11 11 7 6 9 11 10 9 12 14 14 13 11 9 9 8 7 8 9 10 11 11 12 13 15 17 17 16 16 15
18 16 16 16 17 18 17 17 19 20 18 17 18 17 18 19 19 19 19 19 19 19 18 18 18 18 17 17 17 17 15 14 13 12 11 9 8 9 11 11 9 11 13 13 13 11 9 9 9 9 10 11 11 12 12 12 13 14 16 18 17 17 17
17 17 18 20 20 19 19 18 19 21 19 18 19 19 18 19 21 21 21 21 20 21 20 20 20 20 19 19 19 18 17 16 15 13 12 12 12 12 13 12 11 12 13 13 12 10 9 10 12 12 12 12 12 12 13 14 15 15 17 19 19 19 19
11 13 16 18 18 19 22 23 23 25 24 22 23 23 21 21 21 22 23 22 21 21 20 20 21 20 19 20 20 19 18 17 16 15 15 14 14 14 14 14 14 14 14 14 13 13 13 15 15 15 15 15 14 15 16 17 16 17 18 19 20 20 19
9 12 14 16 17 17 19 22 25 28 29 29 28 26 25 24 24 24 24 23 23 22 21 21 22 21 20 21 21 20 20 19 17 17 16 15 15 15 15 15 15 16 16 16 16 16 17 17 17 17 16 16 17 17 18 18 17 17 18 19 19 19 19
6 8 9 11 14 15 17 19 22 22 23 25 26 26 26 25 25 25 25 24 24 24 24 24 24 23 22 22 22 22 22 21 19 18 18 17 16 17 17 16 17 17 17 18 17 18 19 19 19 19 18 17 17 18 19 19 19 18 18 18 19 19 19
5 5 6 5 7 10 13 16 18 18 18 19 21 23 23 23 24 24 25 25 25 26 26 26 27 26 24 24 25 25 24 22 20 19 19 17 17 17 17 17 18 19 19 20 20 20 20 20 20 20 20 19 19 20 20 20 20 19 18 19 19 18 18
6 6 6 6 6 8 9 11 13 14 15 17 19 21 21 22 23 23 23 24 24 26 27 28 30 30 29 29 29 28 26 24 22 20 18 16 16 17 16 17 18 20 21 21 22 23 22 21 21 22 21 21 20 21 22 22 22 21 21 21 20 19 20
6 7 7 8 8 8 9 10 10 11 13 15 17 17 18 21 23 23 24 25 25 26 28 29 32 34 33 32 30 27 26 25 22 20 19 17 16 15 15 16 17 20 22 23 23 24 25 25 25 24 24 24 23 22 23 24 25 25 25 25 24 22 22
7 7 7 8 9 9 9 10 10 11 12 13 15 16 17 19 20 21 24 26 27 28 29 29 32 35 35 34 31 27 25 23 22 20 19 18 16 14 15 16 18 20 22 23 23 24 25 26 26 26 28 28 28 27 26 25 26 26 26 27 28 28 26
8 8 8 9 9 9 10 10 11 11 12 13 15 16 17 18 18 18 20 23 26 28 30 31 31 34 36 34 32 28 23 20 20 19 18 18 17 17 17 18 19 19 20 21 23 23 22 21 22 25 27 29 31 31 31 29 28 28 28 28 30 31 31
8 9 10 10 10 11 11 11 12 12 13 13 14 16 17 18 18 18 19 20 23 25 30 32 32 33 34 34 33 29 22 19 19 19 18 19 20 19 20 20 19 19 19 19 20 20 19 20 22 25 26 27 28 29 30 30 31 31 31 30 31 32 30
9 9 10 11 11 12 12 12 12 13 13 14 14 15 15 17 19 19 19 20 21 25 29 32 31 30 30 32 33 28 24 23 22 21 20 20 20 20 20 20 20 20 19 19 19 20 22 23 25 27 28 29 29 28 28 28 29 30 30 28 28 28 25
10 10 11 11 12 12 12 13 13 13 13 14 14 15 15 16 18 19 19 18 22 27 30 32 32 29 28 31 31 27 26 26 24 20 19 19 19 19 19 19 18 18 18 18 20 24 25 26 26 28 30 31 31 30 29 28 28 29 30 28 27 27 26
11 11 11 11 12 13 12 13 13 13 14 14 15 15 16 15 17 19 19 17 22 28 30 32 33 29 27 29 29 26 26 24 20 18 17 17 16 15 16 18 18 18 18 19 22 26 28 27 28 30 31 32 31 30 29 29 29 29 29 29 29 30 30
12 12 12 13 13 13 14 14 14 14 14 15 15 15 15 15 17 19 18 18 25 30 30 31 31 27 27 29 26 23 21 17 15 14 12 12 12 12 13 16 19 21 21 21 23 27 29 29 30 32 32 32 31 29 29 30 30 28 26 26 27 28 30
14 14 14 14 14 15 15 15 15 14 14 15 15 15 15 15 16 16 17 22 29 31 29 29 28 27 27 27 24 20 15 11 10 10 9 9 9 10 12 15 19 21 20 20 23 27 30 32 33 33 33 33 32 31 30 30 27 25 24 24 25 27 27
15 15 15 15 15 16 16 15 15 15 15 15 15 14 14 15 17 19 21 25 29 29 27 27 28 28 26 24 21 18 14 11 10 9 9 9 10 12 13 13 17 20 20 21 26 29 32 34 34 34 34 34 34 34 33 31 29 27 29 31 32 33 33
16 17 18 18 18 17 17 16 16 15 15 15 15 16 16 17 20 22 23 25 27 27 26 28 29 27 23 20 17 15 14 13 12 10 11 12 12 13 12 12 16 22 23 24 28 31 32 34 34 35 35 35 36 36 35 36 35 34 34 35 34 34 35
18 19 21 22 21 20 18 16 15 16 16 16 17 20 21 21 22 23 23 23 23 24 25 26 26 23 19 16 14 12 12 12 12 12 14 15 14 14 13 12 17 23 25 27 29 31 32 33 34 36 36 35 35 33 33 33 34 33 32 32 32 31 29
19 19 20 20 20 19 17 15 15 17 18 18 20 22 23 23 23 23 22 22 23 25 25 22 20 17 15 13 11 10 10 12 13 13 15 15 15 15 15 14 17 22 25 27 28 29 30 32 32 32 31 30 28 27 27 27 27 26 25 24 25 26 25
20 19 18 18 18 17 17 16 16 18 18 18 18 19 20 22 23 22 22 24 25 24 22 18 15 12 10 9 9 9 10 12 12 13 13 14 15 15 16 17 19 22 24 25 27 28 28 27 25 25 24 23 21 21 21 21 19 19 19 20 21 22 23
Wind_Direction
157 157 152 145 142 140 128 109 89 74 72 67 60 61 66 77 94 104 107 104 87 69 61 75 123 104 83 75 74 73 75 80 128 182 185 181 172 191 210 219 241 251 250 254 259 274 283 281 275 271 275 271 265 270 275 279 273 270 276 275 278 273 250
163 161 152 150 152 148 136 125 120 113 97 83 68 68 75 80 89 91 99 109 100 88 86 96 138 126 104 87 89 93 114 155 167 136 132 221 163 166 216 218 244 267 266 268 273 275 269 271 275 271 270 271 263 261 267 276 276 268 264 265 270 275 272
164 162 158 159 161 156 149 141 137 133 117 100 81 73 78 78 84 90 96 108 109 107 100 80 64 65 71 73 77 73 72 87 115 133 156 206 208 167 163 151 291 268 261 267 272 274 271 275 285 294 295 284 280 277 273 277 280 273 267 266 268 274 276
168 165 166 169 164 162 161 153 149 149 148 152 114 84 73 59 62 77 85 91 99 100 90 78 70 67 71 72 71 70 69 70 71 82 116 115 70 128 147 152 184 238 240 251 250 246 266 295 296 295 293 284 280 279 274 278 282 275 270 270 273 277 274
179 174 174 177 171 170 170 161 163 166 166 178 180 126 60 49 44 49 64 74 80 84 85 84 81 75 72 70 68 68 67 68 72 70 68 68 65 63 76 133 163 237 258 268 259 250 256 284 291 288 287 288 285 279 276 274 273 271 270 270 269 268 266
192 186 181 183 178 176 177 171 171 174 176 184 194 209 291 31 41 36 44 52 60 70 77 79 80 76 70 66 62 66 66 63 67 68 67 69 72 68 55 55 70 58 320 309 293 277 272 277 289 292 289 292 291 286 285 281 278 278 274 272 270 261 259
199 195 189 190 187 182 182 181 176 177 186 191 203 227 270 304 318 23 30 28 35 46 52 58 68 77 77 69 53 55 60 55 55 58 55 57 59 64 64 62 58 38 8 1 7 6 319 300 298 295 297 302 296 290 292 290 288 289 281 274 274 267 263
201 199 194 195 194 189 187 188 184 182 191 194 203 230 265 258 250 277 309 330 354 5 17 16 5 39 83 87 60 48 49 44 44 45 42 43 43 43 48 63 59 22 356 12 12 359 318 297 286 282 297 309 307 303 303 304 301 298 297 295 287 279 275
199 201 199 200 202 196 191 193 190 187 191 192 199 227 265 259 253 269 276 282 295 303 316 323 313 317 321 331 3 10 17 23 24 29 33 29 31 36 34 50 63 358 337 16 3 329 322 313 304 300 298 305 311 314 314 313 312 306 308 313 300 290 290
200 203 203 204 207 204 199 197 196 193 193 192 202 231 262 262 262 270 265 274 284 283 288 293 287 292 297 295 307 323 334 348 356 5 13 13 15 19 17 25 47 5 349 4 352 335 339 334 330 324 311 295 293 306 313 313 312 309 307 308 302 302 309
205 207 208 208 209 209 207 203 201 200 199 194 203 233 257 256 263 267 259 270 280 281 286 284 280 287 282 278 290 298 308 323 333 344 353 360 5 7 6 8 10 1 353 351 344 342 341 337 340 338 325 317 302 293 299 302 303 304 305 304 295 296 302
215 214 213 213 214 214 214 213 209 207 207 203 206 229 251 252 259 263 258 265 271 273 279 277 279 285 267 263 278 281 289 305 309 317 333 343 352 358 359 1 3 358 354 353 349 345 345 342 340 337 318 308 303 295 290 291 292 292 297 299 286 281 283
222 223 221 222 224 224 223 223 220 217 218 214 213 230 247 248 253 259 257 261 265 267 270 269 273 277 267 269 274 267 278 298 297 298 312 322 333 343 346 349 352 353 354 357 350 340 342 342 341 342 330 300 291 293 291 286 282 282 286 288 285 285 287
226 226 226 227 230 232 231 231 230 226 226 224 221 233 247 245 247 252 250 252 258 262 265 265 267 267 262 266 262 253 274 294 275 270 298 313 318 326 336 338 332 335 345 350 348 339 330 326 330 337 333 314 293 286 285 282 281 285 288 286 284 288 289
235 232 231 232 233 235 237 238 237 234 232 232 227 231 241 240 241 244 240 241 247 252 258 259 260 260 252 254 259 260 273 282 247 248 283 304 306 310 322 326 315 319 331 337 342 344 323 306 309 309 301 294 286 281 279 277 278 282 285 286 286 288 289
244 240 237 238 240 243 245 246 245 240 235 238 235 231 234 233 234 238 236 235 238 240 246 248 252 255 247 247 259 265 269 267 255 261 278 284 276 286 305 317 312 313 325 332 336 339 329 318 316 303 289 288 287 286 283 280 282 285 286 289 292 292 291
249 249 244 243 246 247 249 250 249 245 240 242 240 234 234 233 229 230 230 231 233 235 239 241 246 251 245 245 256 262 264 262 259 264 269 261 257 268 286 300 301 304 316 324 327 331 324 312 311 303 296 296 296 295 292 288 287 288 288 290 293 292 291
241 248 250 251 250 250 255 258 256 250 244 243 244 240 237 237 233 228 226 227 228 231 234 234 237 244 243 244 252 256 257 259 258 258 257 258 264 271 279 288 290 295 306 313 316 315 303 295 298 300 298 295 292 288 285 282 282 283 284 286 288 291 292
229 242 252 257 259 260 260 257 255 254 250 246 248 246 240 237 235 232 229 227 225 226 228 225 226 233 238 240 246 250 251 256 258 256 257 263 269 275 280 285 288 293 301 305 305 304 302 302 304 305 302 299 296 291 287 286 286 285 283 284 286 288 289
244 250 255 258 263 265 259 251 253 258 256 251 250 250 246 243 239 234 231 231 229 226 226 226 223 226 233 237 241 246 250 254 255 253 257 263 268 274 281 284 286 291 296 298 301 304 306 308 308 307 305 302 299 297 294 292 290 285 283 283 285 286 286
266 266 263 260 260 263 260 256 257 260 258 254 253 253 251 247 243 239 234 232 232 227 226 228 225 223 229 233 236 244 251 254 253 250 255 261 265 272 279 283 286 290 293 296 301 304 306 308 308 307 305 300 297 294 293 293 291 288 285 284 283 284 285
292 291 286 280 270 266 263 260 259 256 251 251 251 249 248 245 241 240 238 235 233 228 225 228 225 222 226 230 236 246 252 252 249 248 254 261 265 271 278 281 285 288 292 297 301 303 306 308 307 307 305 301 298 295 293 291 290 287 285 284 283 284 284
299 297 292 284 277 271 268 267 267 262 257 254 250 246 245 243 241 240 238 235 232 229 227 227 224 224 230 236 242 248 249 246 245 246 250 255 260 268 275 278 284 287 291 296 299 302 306 307 305 304 303 300 297 295 293 291 289 286 284 282 281 282 282
300 296 292 288 284 281 280 278 276 272 266 260 256 252 249 245 242 241 237 232 230 231 229 226 225 229 237 242 242 241 240 240 241 242 246 249 253 262 270 276 283 289 294 299 301 304 306 306 305 304 302 301 299 296 294 291 289 287 285 282 280 278 278
302 296 291 289 287 284 281 278 275 272 266 259 257 257 255 251 247 244 239 233 232 234 230 227 230 235 240 243 238 233 233 237 239 241 245 247 249 254 264 275 283 290 296 300 302 305 308 309 309 307 306 305 303 301 299 295 291 289 287 284 280 277 274
297 293 290 288 285 283 281 277 273 268 262 259 257 254 254 255 253 249 243 238 236 235 232 231 234 237 239 239 236 232 232 235 236 239 242 244 249 257 266 276 284 289 294 298 302 305 306 305 304 304 304 305 305 305 304 301 297 294 291 287 282 280 278
290 288 288 286 283 282 279 274 270 267 263 261 260 258 255 254 253 250 246 241 237 235 233 233 236 238 238 238 238 236 231 227 230 235 240 247 256 266 272 277 281 284 288 293 296 295 292 293 296 298 300 302 302 302 300 299 298 296 294 291 286 284 282
287 287 287 285 284 283 280 275 271 269 266 261 258 259 256 252 251 249 247 244 237 233 234 235 237 240 240 238 238 234 227 226 231 237 244 254 264 271 276 280 284 289 293 293 289 285 287 294 298 299 299 299 298 296 292 290 289 289 290 289 287 287 285
284 286 286 284 284 283 280 277 274 269 267 263 258 256 252 251 254 251 247 242 235 233 235 236 238 242 241 236 232 227 225 229 236 243 251 262 270 276 281 285 289 291 291 288 284 285 292 298 301 301 302 302 301 297 291 287 285 283 282 280 278 279 277
282 283 285 284 283 282 279 278 275 270 267 263 258 255 251 249 252 250 243 234 231 234 235 234 237 240 236 229 224 222 225 231 240 249 258 266 272 278 283 287 288 286 285 285 285 289 296 300 303 304 304 303 301 295 291 290 287 284 281 279 280 280 277
280 281 283 283 282 281 279 277 275 270 265 263 259 256 252 248 248 249 241 229 230 235 235 234 235 232 225 221 218 217 224 234 244 252 259 267 271 273 277 282 286 288 289 289 287 291 297 301 303 303 303 301 298 292 291 290 288 284 280 280 282 284 282
283 284 284 284 283 281 279 277 274 268 263 262 260 256 253 249 245 242 233 227 231 235 236 234 228 217 213 214 213 213 217 225 235 243 247 254 261 266 271 279 286 290 291 288 285 289 294 297 299 300 299 297 294 291 291 290 286 283 278 272 270 270 272
282 283 284 285 284 281 279 275 271 266 261 260 260 258 254 245 240 241 237 232 234 237 236 229 217 208 209 212 212 214 216 217 223 235 245 252 262 271 277 283 286 284 283 282 283 287 291 294 296 296 294 293 291 290 289 286 281 278 274 271 268 265 264
276 278 282 283 281 279 277 271 266 263 260 258 255 251 244 235 235 241 243 240 239 237 230 221 212 207 208 212 215 222 229 234 240 248 257 265 274 279 283 287 284 280 280 281 283 287 290 292 293 292 291 291 291 289 287 283 281 278 275 273 273 271 269
271 274 279 282 282 279 272 266 262 257 253 248 243 240 236 234 237 242 242 238 232 223 214 210 208 205 207 214 224 233 246 258 265 269 272 278 284 284 284 285 281 280 282 284 287 289 290 290 290 290 290 291 289 287 284 281 280 278 276 275 275 274 274
268 269 273 277 278 274 267 260 257 254 247 240 238 239 237 236 239 239 233 223 213 204 198 197 200 204 211 223 236 247 259 267 271 275 280 286 289 289 288 284 278 278 282 285 287 287 286 286 286 286 286 287 287 287 286 284 281 279 278 277 276 273 272
267 268 269 269 268 266 261 253 250 249 244 240 242 243 239 236 233 225 214 205 198 196 193 192 197 207 219 234 248 258 265 271 278 283 288 291 292 291 288 285 283 286 290 291 290 290 290 290 290 290 292 294 296 296 293 288 282 279 277 276 275 273 271